Location: Haliburton Scout Reserve
(45.0900°N, 78.3200°W)
Time: 09:48:28
(UTC-04:00)

Explorer 11/Cluster Stage 4 - Pass Details

Date: 05 February 2023
Orbit: 466 x 1241 km, 28.8° (Epoch: 31 March)

Event Time Altitude Azimuth Distance (km) Brightness Sun altitude
Rises 04:22:05 0° 221° (SW) 3,848 - -33.2°
Reaches altitude 10° 04:25:40 10° 204° (SSW) 3,010 - -32.6°
Exits shadow 04:29:00 17° 178° (S) 2,574 9.1 -32.0°
Maximum altitude 04:30:34 19° 163° (SSE) 2,541 9.2 -31.7°
Drops below altitude 10° 04:35:42 10° 124° (ESE) 3,194 10.2 -30.8°
Sets 04:39:40 0° 107° (ESE) 4,171 11.2 -30.1°
